GW0274 Weather Reports


time (UTC)temp
C
wind
direction
speed
KPH
gust
KPH
rain 1hr
cm
rain 24hr
cm
rain mn
cm
humidity
%
barometer
mb
20260508183048 5 0 0.0 0.0 0.00 0.00 0.00 91 1001.8
20260508181549 5 0 0.0 0.0 0.00 0.00 0.00 92 1001.9
20260508180058 5 0 0.0 0.0 0.00 0.00 0.00 92 1001.9
20260508174609 5 0 0.0 0.0 0.00 0.00 0.00 91 1002.0
20260508173104 5 0 0.0 0.0 0.00 0.00 0.00 91 1002.2
20260508171610 5 0 0.0 0.0 0.00 0.00 0.00 91 1002.3
20260508170050 5 0 0.0 0.0 0.00 0.00 0.00 91 1002.3
20260508164558 6 0 0.0 0.0 0.00 0.00 0.00 90 1002.2
20260508163055 7 0 0.0 0.0 0.00 0.00 0.00 90 1001.8
20260508161556 7 0 0.0 0.0 0.00 0.00 0.00 91 1001.7
20260508160049 6 0 0.0 0.0 0.00 0.00 0.00 91 1001.6
20260508154549 6 0 0.0 0.0 0.00 0.00 0.00 92 1001.7
20260508153047 6 0 0.0 0.0 0.00 0.00 0.00 92 1001.8
20260508151556 6 0 0.0 0.0 0.00 0.00 0.00 91 1001.9
20260508150048 6 0 0.0 0.0 0.00 0.00 0.00 91 1002.0
20260508144551 7 0 0.0 0.0 0.00 0.00 0.00 89 1001.9
20260508143053 8 0 0.0 0.0 0.00 0.00 0.00 89 1001.9
20260508141552 8 0 0.0 0.0 0.00 0.00 0.00 91 1001.8
20260508140056 7 0 0.0 0.0 0.00 0.00 0.00 92 1002.1
20260508134605 7 0 0.0 0.0 0.00 0.00 0.00 93 1002.3
20260508133104 8 0 0.0 0.0 0.00 0.00 0.00 93 1002.2
20260508131552 8 0 0.0 0.0 0.00 0.00 0.00 94 1001.8
20260508130049 8 0 0.0 0.0 0.00 0.00 0.00 94 1001.5
20260508124550 7 0 0.0 0.0 0.00 0.00 0.00 95 1001.5
20260508123104 7 0 0.0 0.0 0.00 0.00 0.00 95 1001.8
20260508121558 7 0 0.0 0.0 0.00 0.00 0.00 96 1002.2
20260508120054 6 0 0.0 0.0 0.00 0.00 0.00 96 1001.8
20260508114549 6 0 0.0 0.0 0.00 0.00 0.00 96 1001.9
20260508113106 7 0 0.0 0.0 0.00 0.00 0.00 97 1002.1
20260508111600 6 0 0.0 0.0 0.00 0.00 0.00 97 1001.9
20260508110048 6 0 0.0 0.0 0.00 0.00 0.00 97 1002.4
20260508104558 5 0 0.0 0.0 0.00 0.00 0.00 97 1002.4
20260508103052 5 0 0.0 0.0 0.00 0.00 0.00 97 1002.4
20260508101553 5 0 0.0 0.0 0.00 0.00 0.00 97 1002.4
20260508100051 4 0 0.0 0.0 0.00 0.00 0.00 97 1002.0
20260508094555 4 0 0.0 0.0 0.00 0.00 0.00 97 1001.9
20260508093049 4 0 0.0 0.0 0.00 0.00 0.00 97 1002.0
20260508091612 4 0 0.0 0.0 0.00 0.00 0.00 97 1002.1
20260508090058 4 0 0.0 0.0 0.00 0.00 0.00 97 1001.8
20260508084547 4 0 0.0 0.0 0.00 0.00 0.00 97 1001.4
20260508083052 5 0 0.0 0.0 0.00 0.00 0.00 96 1001.2
20260508081552 5 0 0.0 0.0 0.00 0.00 0.00 97 1000.8
20260508080048 5 0 0.0 0.0 0.00 0.00 0.00 97 1000.9
20260508074548 5 0 0.0 0.0 0.00 0.00 0.00 96 1001.1
20260508073052 5 0 0.0 0.0 0.00 0.00 0.00 97 1001.4
20260508071553 5 0 0.0 0.0 0.00 0.00 0.00 96 1001.2
20260508070100 5 0 0.0 0.0 0.00 0.00 0.00 96 1001.4
20260508064551 6 0 0.0 0.0 0.00 0.00 0.00 97 1001.3
20260508063133 6 0 0.0 0.0 0.00 0.00 0.00 96 1001.4
20260508061556 5 0 0.0 0.0 0.00 0.00 0.00 96 1001.5
20260508060056 5 0 0.0 0.0 0.00 0.00 0.00 96 1001.4
20260508054555 5 0 0.0 0.0 0.00 0.00 0.00 96 1001.8
20260508053100 5 0 0.0 0.0 0.00 0.00 0.00 96 1002.1
20260508051612 6 0 0.0 0.0 0.00 0.00 0.00 96 1001.8
20260508050053 6 0 0.0 0.0 0.00 0.00 0.00 96 1001.9
20260508044552 6 0 0.0 0.0 0.00 0.00 0.00 96 1001.7
20260508043052 6 0 0.0 0.0 0.00 0.00 0.00 96 1001.7
20260508041548 6 0 0.0 0.0 0.00 0.00 0.00 96 1002.3
20260508040052 6 0 0.0 0.0 0.00 0.00 0.00 95 1002.2
20260508034553 8 0 0.0 0.0 0.00 0.00 0.00 96 1002.2
20260508033053 8 0 0.0 0.0 0.00 0.00 0.00 96 1002.1
20260508031549 8 0 0.0 0.0 0.00 0.00 0.00 96 1002.0
20260508030049 8 0 0.0 0.0 0.00 0.00 0.00 96 1001.8
20260508024552 8 0 0.0 0.0 0.00 0.00 0.00 96 1001.9
20260508023048 8 0 0.0 0.0 0.00 0.00 0.00 95 1001.9
20260508021554 7 0 0.0 0.0 0.00 0.00 0.00 96 1002.3
20260508020105 8 0 0.0 0.0 0.00 0.00 0.00 96 1002.3
20260508014550 7 0 0.0 0.0 0.00 0.00 0.00 95 1002.5
20260508013046 7 0 0.0 0.0 0.00 0.00 0.00 95 1002.6
20260508011553 7 0 0.0 0.0 0.00 0.00 0.00 94 1002.2
20260508010116 7 0 0.0 0.0 0.00 0.00 0.00 95 1002.2
20260508004556 7 0 0.0 0.0 0.00 0.00 0.00 94 1002.2
20260508003101 8 0 0.0 0.0 0.00 0.00 0.00 94 1002.3
20260508001553 8 0 0.0 0.0 0.00 0.00 0.00 94 1002.4
20260508000054 8 0 0.0 0.0 0.00 0.00 0.00 93 1002.5
20260507234555 7 0 0.0 0.0 0.00 0.00 0.00 92 1002.3
20260507233050 8 0 0.0 0.0 0.00 0.00 0.00 91 1002.1
20260507231556 10 0 0.0 3.2 0.00 0.00 0.00 88 1001.9
20260507230109 12 0 0.0 0.0 0.00 0.00 0.00 87 1000.9
20260507224553 12 0 0.0 1.6 0.00 0.00 0.00 86 1000.8
20260507223157 12 0 0.0 4.8 0.00 0.00 0.00 86 1000.8
20260507221552 12 0 0.0 12.9 0.00 0.00 0.00 86 1001.0
20260507220053 12 0 0.0 14.5 0.00 0.00 0.00 87 1000.8
20260507214559 12 0 0.0 8.0 0.00 0.00 0.00 88 1000.8
20260507213107 12 0 0.0 1.6 0.00 0.00 0.00 88 1000.7
20260507211555 12 0 0.0 12.9 0.00 0.00 0.00 88 1000.7
20260507204551 12 0 1.6 16.1 0.00 0.00 0.00 90 1000.9
20260507203054 12 0 0.0 17.7 0.00 0.00 0.00 91 1000.2
20260507201603 12 91 0.0 20.9 0.00 0.00 0.00 92 1000.2
20260507200105 12 0 0.0 16.1 0.00 0.00 0.00 92 1000.0
20260507194549 12 0 0.0 22.5 0.00 0.00 0.00 92 1001.2
20260507193049 12 160 0.0 12.9 0.00 0.00 0.00 91 1002.1
20260507191547 12 0 0.0 4.8 0.00 0.00 0.00 90 1002.8
20260507190052 12 0 0.0 1.6 0.00 0.00 0.00 92 1002.8
20260507184548 12 0 0.0 16.1 0.00 0.00 0.00 91 1003.1